Location: Del Amo
(33.8464°N, 118.2104°W)
Time: 17:25:25
(UTC+00:00)

HTV-X1 - Visible Passes

Search period start: 15 May 2026 00:00
Search period end: 25 May 2026 00:00
Orbit: 372 x 383 km, 51.6° (Epoch: 15 May)

Date Brightness Start Highest point End Pass type
(mag) Time Alt. Az. Time Alt. Az. Time Alt. Az.
22 May ? 05:31:50 10° NNW 05:32:44 15° N 05:32:44 15° N visible
23 May ? 04:32:13 10° NNE 04:32:54 11° NNE 04:33:35 10° NE visible
24 May ? 05:05:13 10° NNW 05:07:09 26° N 05:07:09 26° N visible
